Weather in Jubail

Saudi Arabia     27°00′30″N   49°39′18″E
temp.,
°C
wind,
m/s
gust,
m/s
humid.,
%
clouds,
%
prec.,
mm/h
press.,
hPa
HPBL,
m
7 march, sun
sun700:00+19wnw711570 0.0 1019526
03:00+19nw912530 0.0 1017760
06:00+19nnw1012570 0.0 1019912
09:00+19nnw911580 0.0 1019854
12:00+19nnw910570 0.0 1017814
15:00+19nnw810550 0.0 1015647
18:00+19nnw79540 0.0 1015416
21:00+19nnw46560 0.0 1016279
8 march, mon
mon800:00+19wnw34530 0.0 1015146
03:00+19wnw45470 0.0 1014156
06:00+19wnw33470 0.0 1015112
09:00+20nw34480 0.0 1016117
12:00+20nne22440 0.0 1015117
15:00+20ne44460 0.0 1012107
18:00+20e44550 0.0 101257
21:00+21ese685526 0.0 1012130
9 march, tue
tue900:00+21se55560 0.0 101178
03:00+20se46600 0.0 1010110
06:00+20ese67640 0.0 101293
09:00+21sse33590 0.0 101440
12:00+22nne34500 0.0 101397
15:00+22n67640 0.0 1012155
18:00+21n57660 0.0 1014135
21:00+20nne55610 0.0 101594
10 march, wed
wed1000:00+21n66560 0.0 101588
03:00+21nw56580 0.0 101483
06:00+20nnw710671 0.0 1016218
09:00+21n586717 0.0 1017185
12:00+21nnw69630 0.0 1016210
15:00+21nnw710630 0.0 1015254
18:00+21n57650 0.0 1015143
21:00+21nnw45580 0.0 101754
11 march, thu
thu1100:00+21nnw45530 0.0 101633
03:00+21nnw44540 0.0 101427
06:00+21n33570 0.0 101323
09:00+21ese22600 0.0 101438
12:00+22ese33540 0.0 101268
15:00+24ese45520 0.0 100991
18:00+24se785032 0.0 100857
21:00+24sse9124536 0.0 1008110